Location: Ostrava
(49.8330°N, 18.2830°E)
Time: 08:43:34
(UTC+02:00)

Iridium 39 - Visible Passes

Search period start: 25 April 2017 00:00
Search period end: 05 May 2017 00:00
Orbit: 723 x 753 km, 86.4° (Epoch: 23 April)

Date Brightness Start Highest point End Pass type
(mag) Time Alt. Az. Time Alt. Az. Time Alt. Az.
25 Apr 6.0 01:12:15 10° N 01:16:54 69° WNW 01:16:54 69° WNW visible
25 Apr 8.2 02:55:42 10° WNW 02:56:07 10° WNW 02:56:33 10° WNW visible
26 Apr 6.3 00:27:08 10° N 00:31:54 53° ENE 00:31:54 53° ENE visible
26 Apr 7.4 02:07:46 10° NNW 02:11:32 22° W 02:11:33 22° W visible
26 Apr 7.3 23:42:27 10° NNE 23:46:32 25° ENE 23:46:55 25° E visible
27 Apr 6.4 01:21:57 10° NNW 01:26:33 46° W 01:26:33 46° W visible
27 Apr 8.1 22:58:52 10° NE 23:00:49 12° ENE 23:01:56 11° E visible
28 Apr 5.8 00:36:37 10° N 00:41:34 80° E 00:41:34 80° E visible
28 Apr 7.9 02:18:05 10° NW 02:20:49 15° WNW 02:21:13 15° W visible
28 Apr 6.8 23:51:42 10° N 23:56:17 37° ENE 23:56:36 36° E visible
29 Apr 7.0 01:31:46 10° NNW 01:36:06 31° W 01:36:14 31° W visible
29 Apr 7.7 23:07:21 10° NNE 23:10:43 18° ENE 23:11:37 17° E visible
30 Apr 5.9 00:46:13 10° N 00:51:09 68° W 00:51:16 68° W visible
01 May 6.1 00:01:05 10° N 00:05:57 55° E 00:06:17 54° E visible
01 May 7.5 01:41:47 10° NNW 01:45:27 21° WNW 01:45:56 21° W visible
01 May 7.2 23:16:22 10° NNE 23:20:31 26° ENE 23:21:19 25° E visible
02 May 6.4 00:55:55 10° NNW 01:00:38 45° W 01:00:58 44° W visible
02 May 8.0 22:32:39 10° NE 22:34:49 13° ENE 22:36:22 11° E visible
03 May 5.7 00:10:35 10° N 00:15:34 83° E 00:16:01 73° SSE visible
03 May 8.0 01:52:08 10° NW 01:54:45 14° WNW 01:55:39 14° W visible
03 May 6.6 23:25:37 10° N 23:30:15 38° ENE 23:31:03 36° E visible
04 May 7.1 01:05:45 10° NNW 01:10:02 30° W 01:10:42 29° W visible
04 May 7.6 22:41:13 10° NNE 22:44:42 19° ENE 22:46:06 17° E visible
